Weather Roundup
Issued by NWS

Home | Current Version | Previous Version | Graphics & Text | Print | Product List | Glossary Off
Versions: 1 2 3 4 5 6 7 8 9 10 11 12 13 14 15 16 17 18 19 20 21 22 23 24 25 26 27 28 29 30 31 32 33 34 35 36 37 38 39 40 41 42 43 44 45 46 47 48 49 50

000
NZUS93 KARX 221110
HRRWXR

CURRENT HOURLY OBSERVATIONS ACROSS
MUCH OF THE UPPER MISSISSIPPI VALLEY
NATIONAL WEATHER SERVICE LA CROSSE WI
600 AM CDT FRI MAY 22 2015


...SOUTHEAST MINNESOTA...


CITY           SKY/WX    TMP DP  RH WIND       PRES   REMARKS
ROCHESTER      CLEAR     47  33  58 NW8       30.17R
ROCHESTER/MAYO FAIR      49  36  60 CALM      30.16R
WINONA         CLEAR     41  37  87 NW3       30.16R
AUSTIN         CLEAR     43  37  81 CALM      30.16R
ALBERT LEA     CLEAR     43  39  87 CALM      30.17R
DODGE CENTER   CLEAR     46  34  61 CALM      30.16R
PRESTON        CLEAR     47  33  58 NW6       30.16R
OWATONNA       CLEAR     39  36  87 CALM      30.17R
FARIBAULT      CLEAR     39  39 100 CALM      30.17R
$$

...ELSEWHERE IN MINNESOTA...


CITY           SKY/WX    TMP DP  RH WIND       PRES   REMARKS
MINNEAPOLIS    CLEAR     50  36  58 CALM      30.17R
INTNL FALLS    CLEAR     31  29  92 CALM      30.16R
DULUTH         CLEAR     38  32  79 CALM      30.17R
RED WING       CLEAR     41  37  87 CALM      30.16R
REDWOOD FALLS  CLEAR     44  37  76 W5        30.18R
MANKATO        CLEAR     45  36  70 CALM      30.17R
WORTHINGTON    CLEAR     41  30  65 CALM      30.19S
FAIRMONT       CLEAR     46  30  53 W5        30.17S
$$

...SOUTHWEST WISCONSIN...


CITY           SKY/WX    TMP DP  RH WIND       PRES   REMARKS
LA CROSSE      CLEAR     45  41  86 CALM      30.15R
PRAIRIE DU CHI CLEAR     41  38  89 E3        30.15R
BOSCOBEL       FOG       37  36  96 CALM      30.16R VSB 1/4
LONE ROCK      CLEAR     38  36  92 CALM      30.16R
PLATTEVILLE    CLEAR     45  40  81 NE3       30.15R
FORT MC COY    CLEAR     32  32  99 CALM      30.16R
CAMP DOUGLAS   CLEAR     34  34 100 E2        30.16R
VIROQUA        FAIR      47  36  67 SE8       30.14R
WIS DELLS      CLEAR     41  35  81 CALM      30.17R
$$

...ELSEWHERE IN WISCONSIN...


CITY           SKY/WX    TMP DP  RH WIND       PRES   REMARKS
MILWAUKEE      CLEAR     44  32  62 NE7       30.17R
MADISON        CLEAR     42  35  76 N6        30.16R
GREEN BAY      CLEAR     38  35  89 W3        30.18R
EAU CLAIRE     CLEAR     38  36  92 NE3       30.16R
BLACK RVR FLS  FAIR      31  31 100 CALM      30.16R
MEDFORD        CLEAR     35  32  90 CALM      30.17R
WAUSAU         CLEAR     36  35  96 E3        30.17R
WIS RAPIDS     CLEAR     39  34  82 CALM      30.19R
MARSHFIELD     CLEAR     42  35  76 E3        30.17R
RICE LAKE      CLEAR     37  36  94 N3        30.19R
$$

...NORTHEAST IOWA...


CITY           SKY/WX    TMP DP  RH WIND       PRES   REMARKS
DECORAH        CLEAR     46  36  66 CALM      30.15R
MASON CITY     CLEAR     42  34  73 W5        30.18R
CHARLES CITY   CLEAR     45  39  81 NW5       30.16S
OELWEIN        CLEAR     45  39  81 NW5       30.16R
$$

...ELSEWHERE IN IOWA...


CITY           SKY/WX    TMP DP  RH WIND       PRES   REMARKS
DES MOINES     PTCLDY    51  41  68 NW6       30.18R
IOWA CITY      CLEAR     44  37  76 NW3       30.17R
FORT DODGE     CLEAR     41  36  81 CALM      30.18S
$$

...NORTHERN ILLINOIS...


CITY           SKY/WX    TMP DP  RH WIND       PRES   REMARKS
CHICAGO-OHARE  CLEAR     47  39  74 N7        30.12R
CHICAGO-MIDWAY CLEAR     50  42  74 N6        30.12R
MOLINE         CLEAR     46  40  79 CALM      30.14R
ROCKFORD       CLEAR     47  35  63 CALM      30.16R
PEORIA         CLEAR     51  44  77 VRB3      30.15R
$$

NOTE: "FAIR" INDICATES FEW OR NO CLOUDS BELOW 12,000 FEET WITH NO
SIGNIFICANT WEATHER AND/OR OBSTRUCTIONS TO VISIBILITY. WIND
SPEEDS ARE IN MILES-PER-HOUR.



USA.gov is the U.S. government's official web portal to all federal, state and local government web resources and services.